Waarnemingen

Advertentie
Mijn weer
Greifswald, Duitsland (10184): temperatuur & dauwpunt: 14.10.2017 08:00:00 - 20.10.2017 08:00:00 (CEST)Greifswald, Duitsland (10184): temperatuur 5cm & temperatuur -5cm: 14.10.2017 08:00:00 - 20.10.2017 08:00:00 (CEST)Greifswald, Duitsland (10184): temperatuur -20cm & temperatuur -100cm: 14.10.2017 08:00:00 - 20.10.2017 08:00:00 (CEST)Greifswald, Duitsland (10184): windsnelheid & windstoten: 14.10.2017 08:00:00 - 20.10.2017 08:00:00 (CEST)Greifswald, Duitsland (10184): windrichting: 14.10.2017 08:00:00 - 20.10.2017 08:00:00 (CEST)Greifswald, Duitsland (10184): luchtdruk: 14.10.2017 08:00:00 - 20.10.2017 08:00:00 (CEST)Greifswald, Duitsland (10184): zicht: 14.10.2017 08:00:00 - 20.10.2017 08:00:00 (CEST)Greifswald, Duitsland (10184): Zonneschijnduur: 14.10.2017 08:00:00 - 20.10.2017 08:00:00 (CEST)Greifswald, Duitsland (10184): neerslag: 14.10.2017 08:00:00 - 20.10.2017 08:00:00 (CEST)
Datum & Tijd tt [°C] td [°C] tt 5cm [°C] tt -5cm [°C] tt -20cm [°C] tt -100cm [°C] ff [km/u] ff [kn] fx [km/u] fx [kn] dd ppp [hPa] vv [km] sd [min] rr [mm]
20.10.2017 08:00:00 11,0 10,2 10,7 10,7 11,2 13,1 8 4 23 12 ZO 1013,3 2,1 0 0,0
20.10.2017 07:00:00 11,1 10,4 10,8 10,6 11,1 13,2 12 6 24 13 ZZO 1013,4 2,5 0 0,0
20.10.2017 06:00:00 11,6 10,7 11,1 10,3 11,1 13,2 10 6 23 12 ZO 1013,3 3,0 0 0,0
20.10.2017 05:00:00 11,7 10,8 11,2 9,8 11,1 13,2 14 8 24 13 ZO 1013,3 3,0 0 0,0
20.10.2017 04:00:00 11,1 10,3 10,1 9,2 11,2 13,2 13 7 20 11 OZO 1013,6 3,3 0 0,0
20.10.2017 03:00:00 10,5 10,0 9,1 8,9 11,4 13,2 10 5 20 11 OZO 1014,0 3,9 0 0,0
20.10.2017 02:00:00 10,2 9,7 8,7 9,0 11,6 13,2 12 7 16 8 O 1014,2 3,0 0 0,0
20.10.2017 01:00:00 9,5 9,3 7,0 9,3 11,8 13,2 10 5 14 8 OZO 1014,6 3,0 0 0,0
20.10.2017 00:00:00 9,7 9,4 7,5 9,7 12,1 13,2 8 5 12 7 O 1015,2 4,5 0 0,0
19.10.2017 23:00:00 9,4 9,1 7,7 9,8 12,3 13,2 9 5 11 6 O 1015,6 2,0 0 0,0
19.10.2017 22:00:00 9,8 9,5 7,0 10,3 12,6 13,2 9 5 12 6 OZO 1015,5 3,0 0 0,0
19.10.2017 21:00:00 10,7 10,2 8,6 10,9 12,9 13,2 10 5 14 7 O 1015,3 5 0 0,0
19.10.2017 20:00:00 11,1 10,4 9,0 11,6 13,2 13,2 10 6 18 10 O 1015,3 8 0 0,0
19.10.2017 19:00:00 11,8 10,6 10,6 12,5 13,4 13,2 13 7 23 12 O 1015,4 12 0 0,0
19.10.2017 18:00:00 12,2 10,7 11,5 13,5 13,5 13,2 16 9 22 12 O 1015,4 12 0 0,0
19.10.2017 17:00:00 12,8 10,6 12,6 14,7 13,4 13,2 15 8 24 13 O 1015,9 10 0 0,0
19.10.2017 16:00:00 13,3 11,1 14,3 15,5 13,2 13,2 14 8 25 13 ONO 1015,9 16 0 0,0
19.10.2017 15:00:00 14,0 10,6 15,8 16,6 12,7 13,2 16 9 23 13 ONO 1015,9 22 59 0,0
19.10.2017 14:00:00 14,5 10,8 18,6 15,8 12,2 13,2 16 9 21 11 NO 1016,1 22 60 0,0
19.10.2017 13:00:00 14,0 10,7 18,1 14,6 11,7 13,2 11 6 18 10 ONO 1016,5 25 46 0,0
19.10.2017 12:00:00 12,9 10,3 14,0 13,0 11,4 13,2 13 7 19 10 O 1016,5 21 8 0,0
19.10.2017 11:00:00 12,5 9,9 12,9 12,5 11,1 13,2 13 7 17 9 O 1016,6 30 3 0,0
19.10.2017 10:00:00 11,4 9,8 11,6 10,8 11,0 13,2 9 5 13 7 O 1016,6 27 0 0,0
19.10.2017 09:00:00 9,7 9,3 9,3 9,6 11,0 13,2 4 2 7 4 O 1016,4 13 0 0,0
19.10.2017 08:00:00 9,5 8,9 8,1 9,7 11,1 13,2 6 3 8 5 ONO 1016,0 10 0 0,0
19.10.2017 07:00:00 10,1 9,5 9,5 9,9 11,0 13,2 5 3 11 6 O 1015,9 20 0 0,0
19.10.2017 06:00:00 10,2 9,3 9,9 9,8 11,0 13,2 8 4 11 6 O 1016,3 20 0 0,0
19.10.2017 05:00:00 10,0 9,6 9,8 9,4 11,1 13,2 8 4 11 6 OZO 1016,0 18 0 0,0
19.10.2017 04:00:00 8,4 8,2 8,3 8,8 11,3 13,2 4 2 9 5 O 1016,1 7 0 0,0
19.10.2017 03:00:00 8,2 8,0 5,9 8,9 11,5 13,2 5 3 9 5 O 1016,0 6 0 0,0
19.10.2017 02:00:00 8,7 8,5 7,7 9,3 11,6 13,2 4 2 7 4 O 1016,2 8 0 0,0
19.10.2017 01:00:00 7,9 7,6 5,9 9,2 11,9 13,2 4 2 8 4 ONO 1016,3 9 0 0,0
19.10.2017 00:00:00 8,8 8,5 6,6 9,9 12,1 13,2 4 2 6 4 ONO 1016,1 6 0 0,0
18.10.2017 23:00:00 9,0 8,7 8,0 10,1 12,3 13,2 4 2 6 3 O 1016,1 9 0 0,0
18.10.2017 22:00:00 8,9 8,5 8,1 10,3 12,5 13,2 3 2 4 2 ONO 1016,1 15 0 0,0
18.10.2017 21:00:00 8,7 8,3 6,7 10,5 12,8 13,2 3 1 5 3 ZW 1015,9 15 0 0,0
18.10.2017 20:00:00 9,4 8,8 8,5 11,4 13,1 13,2 4 2 7 4 ONO 1015,7 12 0 0,0
18.10.2017 19:00:00 10,1 9,3 8,0 12,3 13,3 13,2 4 2 4 2 O 1015,9 16 0 0,0
18.10.2017 18:00:00 12,0 9,9 10,0 13,7 13,3 13,2 1 0 6 4 O 1015,6 30 0 0,0
18.10.2017 17:00:00 14,6 9,4 13,9 15,1 13,1 13,2 3 2 8 5 W 1015,6 28 6 0,0
18.10.2017 16:00:00 15,0 9,0 16,1 15,4 12,8 13,2 5 3 10 5 W 1015,6 42 57 0,0
18.10.2017 15:00:00 14,7 9,5 15,9 15,1 12,4 13,2 5 3 11 6 ZW 1015,8 32 24 0,0
18.10.2017 14:00:00 14,2 10,0 15,4 14,8 12,0 13,2 5 3 10 5 W 1016,0 30 3 0,0
18.10.2017 13:00:00 13,7 10,1 15,7 13,7 11,6 13,2 6 4 12 6 WZW 1016,3 22 22 0,0
18.10.2017 12:00:00 13,2 9,8 14,1 12,6 11,2 13,2 10 5 16 9 WZW 1016,6 18 56 0,0
18.10.2017 11:00:00 12,2 9,4 13,5 11,1 11,0 13,2 9 5 15 8 ZZW 1016,6 19 60 0,0
18.10.2017 10:00:00 11,1 8,9 11,8 9,8 11,0 13,2 7 4 13 7 WZW 1016,4 19 48 0,0
18.10.2017 09:00:00 10,1 8,8 9,4 8,9 11,1 13,2 9 5 13 7 ZW 1016,2 14 0 0,0
18.10.2017 08:00:00 9,8 8,7 8,2 8,9 11,3 13,2 6 3 10 5 WZW 1016,0 15 0 0,0
18.10.2017 07:00:00 10,0 8,7 8,5 9,0 11,5 13,2 6 3 11 6 ZW 1015,8 20 0 0,0
18.10.2017 06:00:00 10,2 8,7 8,9 9,3 11,6 13,2 7 4 13 7 WZW 1015,8 20 0 0,0
18.10.2017 05:00:00 10,5 8,9 9,2 9,5 11,8 13,2 6 4 14 8 WZW 1015,9 20 0 0,0
18.10.2017 04:00:00 10,6 8,9 9,1 9,7 12,0 13,2 7 4 13 7 ZW 1016,2 20 0 0,0
18.10.2017 03:00:00 10,8 8,9 9,0 10,0 12,2 13,2 6 3 12 7 ZW 1016,5 25 0 0,0
18.10.2017 02:00:00 11,2 8,7 9,3 10,3 12,4 13,2 6 3 17 9 ZW 1016,7 25 0 0,0
18.10.2017 01:00:00 12,0 8,9 10,5 10,6 12,6 13,2 10 5 21 11 WZW 1016,9 25 0 0,0
18.10.2017 00:00:00 12,4 9,0 11,1 11,0 12,8 13,2 13 7 22 12 WZW 1016,9 30 0 0,0
17.10.2017 23:00:00 12,6 9,6 11,2 11,3 13,0 13,2 8 4 19 11 WZW 1017,4 25 0 0,0
17.10.2017 22:00:00 13,4 9,8 12,0 11,6 13,2 13,2 11 6 20 11 ZW 1017,3 28 0 0,0
17.10.2017 21:00:00 13,9 9,9 12,6 11,9 13,4 13,2 11 6 22 12 ZW 1017,4 26 0 0,0
17.10.2017 20:00:00 14,4 9,5 13,0 12,3 13,7 13,2 11 6 19 10 ZW 1017,4 30 0 0,0
17.10.2017 19:00:00 15,2 9,6 13,4 12,8 13,9 13,2 10 6 22 12 ZW 1017,2 30 0 0,0
17.10.2017 18:00:00 15,7 8,9 14,1 13,7 14,0 13,2 10 5 19 10 ZW 1017,4 30 0 0,0
17.10.2017 17:00:00 16,4 9,8 15,3 14,7 14,0 13,2 10 5 23 12 ZW 1017,6 29 0 0,0
17.10.2017 16:00:00 17,3 9,8 16,8 15,4 13,8 13,2 14 7 29 15 ZW 1017,9 30 0 0,0
17.10.2017 15:00:00 17,2 11,5 17,2 15,5 13,6 13,2 13 7 28 15 ZW 1018,3 26 0 0,0
17.10.2017 14:00:00 17,1 11,8 17,1 15,2 13,3 13,2 12 7 29 15 WZW 1018,8 22 0 0,0
17.10.2017 13:00:00 17,1 12,5 17,0 14,9 13,0 13,2 16 9 29 16 ZW 1018,9 23 0 0,0
17.10.2017 12:00:00 16,9 12,6 16,8 14,6 12,7 13,2 13 7 24 13 ZW 1019,2 20 1 0,0
17.10.2017 11:00:00 16,1 12,3 16,4 13,5 12,5 13,2 13 7 22 12 ZW 1019,4 16 1 0,0
17.10.2017 10:00:00 15,1 11,9 14,8 12,4 12,4 13,2 10 6 19 10 ZW 1019,5 15 0 0,0
17.10.2017 09:00:00 14,6 11,6 13,8 11,8 12,4 13,2 11 6 20 11 ZW 1019,5 16 0 0,0
17.10.2017 08:00:00 14,9 11,6 12,9 11,5 12,4 13,2 11 6 24 13 ZW 1018,8 16 0 0,0
17.10.2017 07:00:00 14,4 11,8 12,4 11,4 12,4 13,2 11 6 18 10 ZZW 1018,7 16 0 0,0
17.10.2017 06:00:00 14,3 12,1 12,5 11,2 12,5 13,2 10 6 17 9 ZZW 1019,0 17 0 0,0
17.10.2017 05:00:00 13,7 12,4 12,0 11,0 12,6 13,2 8 5 15 8 ZZW 1019,2 10 0 0,0
17.10.2017 04:00:00 13,0 12,6 10,9 11,0 12,8 13,1 5 3 11 6 ZZW 1019,6 5 0 0,0
17.10.2017 03:00:00 12,8 12,6 10,1 10,9 13,0 13,1 4 2 9 5 Z 1020,2 3,0 0 0,0
17.10.2017 02:00:00 12,1 12,0 9,2 10,9 13,2 13,1 5 3 8 4 Z 1020,5 3,0 0 0,0
17.10.2017 01:00:00 10,2 9,8 8,6 11,1 13,5 13,1 2 1 7 4 O 1020,7 2,0 0 0,0
17.10.2017 00:00:00 10,2 9,9 8,5 11,5 13,8 13,1 5 3 8 4 OZO 1021,0 1,5 0 0,0
16.10.2017 23:00:00 10,7 10,4 9,1 11,9 14,1 13,1 4 2 9 5 ZO 1021,1 1,5 0 0,0
16.10.2017 22:00:00 11,0 10,7 9,1 12,4 14,4 13,1 4 2 8 4 O 1021,4 1,5 0 0,0
16.10.2017 21:00:00 11,1 10,7 9,4 13,0 14,8 13,1 7 4 9 5 O 1021,1 2,0 0 0,0
16.10.2017 20:00:00 11,6 11,2 10,2 13,9 15,1 13,1 4 2 5 3 O 1021,1 1,5 0 0,0
16.10.2017 19:00:00 12,6 12,0 11,0 15,0 15,3 13,1 3 2 5 3 OZO 1021,0 2,5 0 0,0
16.10.2017 18:00:00 14,1 12,8 12,6 16,5 15,4 13,1 5 3 10 5 O 1020,8 4,0 0 0,0
16.10.2017 17:00:00 16,5 13,5 16,9 17,9 15,2 13,1 7 4 16 8 N 1021,1 8 58 0,0
16.10.2017 16:00:00 19,2 13,9 19,8 18,3 14,8 13,1 9 5 21 11 W 1021,0 12 60 0,0
16.10.2017 15:00:00 19,1 14,0 20,8 18,4 14,3 13,1 16 8 27 14 W 1020,9 13 56 0,0
16.10.2017 14:00:00 18,6 13,7 20,7 17,8 13,8 13,1 13 7 26 14 WZW 1020,8 20 60 0,0
16.10.2017 13:00:00 18,1 13,5 19,8 16,8 13,2 13,1 14 8 23 13 WZW 1020,8 20 60 0,0
16.10.2017 12:00:00 17,2 12,8 19,3 15,5 12,7 13,1 11 6 23 13 WZW 1020,7 20 60 0,0
16.10.2017 11:00:00 16,0 12,0 17,8 13,7 12,4 13,1 13 7 22 12 WZW 1020,4 18 60 0,0
16.10.2017 10:00:00 14,5 11,2 15,3 12,2 12,4 13,1 11 6 22 12 WZW 1020,6 20 60 0,0
16.10.2017 09:00:00 13,7 10,9 13,5 11,1 12,5 13,1 11 6 21 11 ZW 1020,0 20 35 0,0
16.10.2017 08:00:00 13,2 10,9 11,7 10,9 12,6 13,0 11 6 19 10 ZZW 1019,7 18 0 0,0
16.10.2017 07:00:00 13,2 11,1 11,4 11,1 12,8 13,0 8 5 15 8 ZZW 1019,7 20 0 0,0
16.10.2017 06:00:00 13,4 11,3 11,6 11,3 12,9 13,0 8 4 13 7 ZZW 1019,8 22 0 0,0
16.10.2017 05:00:00 13,9 11,7 12,2 11,6 13,1 13,0 8 4 16 9 ZW 1020,0 22 0 0,0
16.10.2017 04:00:00 14,5 11,8 12,7 11,9 13,2 13,0 9 5 19 10 ZW 1020,1 22 0 0,0
16.10.2017 03:00:00 14,5 12,2 12,8 12,0 13,4 13,0 11 6 18 10 ZZW 1020,2 18 0 0,0
16.10.2017 02:00:00 14,7 12,7 12,7 12,2 13,5 13,0 9 5 17 9 ZZW 1020,4 16 0 0,0
16.10.2017 01:00:00 15,0 13,0 13,1 12,4 13,7 13,0 10 5 20 11 ZZW 1020,7 15 0 0,0
16.10.2017 00:00:00 15,0 13,2 13,1 12,5 13,9 13,0 11 6 23 12 ZZW 1020,9 12 0 0,0
15.10.2017 23:00:00 14,1 13,1 11,9 12,7 14,2 13,0 8 4 14 8 Z 1021,3 8 0 0,0
15.10.2017 22:00:00 14,8 13,5 12,9 13,2 14,4 13,0 7 4 18 10 Z 1021,7 10 0 0,0
15.10.2017 21:00:00 15,2 13,5 13,2 13,6 14,7 13,0 7 4 16 8 Z 1022,1 11 0 0,0
15.10.2017 20:00:00 15,4 13,4 13,7 14,2 14,9 13,0 6 4 14 8 Z 1022,5 18 0 0,0
15.10.2017 19:00:00 15,4 14,1 13,5 15,0 15,1 13,0 7 4 15 8 ZZO 1022,9 18 0 0,0
15.10.2017 18:00:00 16,5 14,4 15,1 16,3 15,1 13,0 8 4 18 10 ZZO 1022,9 18 37 0,0
15.10.2017 17:00:00 17,4 14,1 17,9 17,3 14,9 13,0 5 3 17 9 Z 1023,3 23 60 0,0
15.10.2017 16:00:00 16,6 13,6 18,7 16,8 14,7 13,0 7 4 21 11 Z 1023,9 18 19 0,0
15.10.2017 15:00:00 15,4 13,5 16,3 16,5 14,5 13,0 11 6 20 11 Z 1024,6 10 0 0,0
15.10.2017 14:00:00 15,5 13,4 16,4 16,1 14,3 13,0 10 6 21 11 ZZW 1025,0 12 0 0,0
15.10.2017 13:00:00 15,5 13,3 16,1 15,8 14,2 13,0 9 5 15 8 ZZW 1025,3 10 0 0,0
15.10.2017 12:00:00 15,3 13,6 15,9 15,4 14,0 12,9 8 5 14 8 ZW 1025,5 8 0 0,0
15.10.2017 11:00:00 15,2 13,4 15,7 15,0 13,9 12,9 8 4 17 9 WZW 1025,7 10 0 0,0
15.10.2017 10:00:00 15,2 13,6 15,4 14,5 13,8 12,9 9 5 18 10 W 1025,3 10 0 0,0
15.10.2017 09:00:00 15,1 13,4 15,2 14,2 13,8 12,9 11 6 17 9 W 1024,9 12 0 0,0
15.10.2017 08:00:00 15,1 13,4 14,9 14,0 13,8 12,9 11 6 22 12 W 1024,9 12 0 0,0
15.10.2017 07:00:00 15,2 13,3 14,9 14,1 13,9 12,9 10 5 20 11 WZW 1024,5 15 0 0,0
15.10.2017 06:00:00 15,3 13,3 15,1 14,0 13,9 12,9 12 7 22 12 WZW 1024,1 13 0 0,0
15.10.2017 05:00:00 15,3 13,3 15,0 13,9 14,0 12,9 14 8 25 14 WZW 1023,7 14 0 0,0
15.10.2017 04:00:00 15,1 13,2 14,1 13,9 14,1 12,9 12 6 22 12 ZW 1023,3 14 0 0,0
15.10.2017 03:00:00 15,7 13,4 15,4 14,5 14,1 12,9 11 6 23 13 WZW 1023,6 13 0 0,0
15.10.2017 02:00:00 15,9 13,5 15,6 14,5 14,1 12,9 11 6 24 13 WZW 1023,4 14 0 0,0
15.10.2017 01:00:00 16,0 13,5 15,6 14,5 14,2 12,9 13 7 25 13 WZW 1023,4 12 0 0,0
15.10.2017 00:00:00 16,0 13,6 15,6 14,6 14,2 12,9 14 7 24 13 WZW 1023,3 12 0 0,0
14.10.2017 23:00:00 16,0 13,6 15,7 14,7 14,2 12,9 14 7 27 15 WZW 1023,6 15 0 0,0
14.10.2017 22:00:00 16,3 13,7 15,9 14,9 14,3 12,9 17 9 32 17 W 1023,8 20 0 0,0
14.10.2017 21:00:00 16,4 14,0 16,0 15,0 14,3 12,9 15 8 29 16 WZW 1023,5 20 0 0,0
14.10.2017 20:00:00 16,4 14,4 15,9 15,1 14,3 12,9 15 8 26 14 WZW 1023,2 14 0 0,0
14.10.2017 19:00:00 16,5 14,6 16,1 15,3 14,3 12,9 16 9 26 14 WZW 1023,1 12 0 0,0
14.10.2017 18:00:00 16,5 14,6 16,4 15,6 14,3 12,9 16 9 40 21 WZW 1022,6 15 0 0,0
14.10.2017 17:00:00 16,8 14,6 16,7 15,8 14,2 12,9 16 9 34 18 W 1022,1 15 0 0,0
14.10.2017 16:00:00 17,2 14,4 17,1 15,9 14,1 12,9 18 10 32 17 WZW 1021,8 15 0 0,0
14.10.2017 15:00:00 17,3 14,5 17,6 15,9 13,9 12,9 17 9 34 19 W 1021,9 12 0 0,0
14.10.2017 14:00:00 17,2 14,3 17,3 15,9 13,7 12,9 16 9 31 17 WZW 1021,6 14 0 0,0
14.10.2017 13:00:00 17,2 14,1 17,6 15,9 13,4 12,9 21 12 35 19 WZW 1021,7 10 1 0,0
14.10.2017 12:00:00 16,6 13,9 16,8 15,1 13,2 12,9 20 11 34 19 WZW 1021,8 11 0 0,0
14.10.2017 11:00:00 16,3 13,7 16,3 14,6 13,0 12,9 16 9 27 15 WZW 1021,6 11 0 0,0
14.10.2017 10:00:00 16,2 13,5 16,5 14,2 12,9 12,9 15 8 30 16 WZW 1021,3 15 0 0,0
14.10.2017 09:00:00 15,4 13,1 15,4 13,6 12,8 12,9 13 7 26 14 WZW 1020,9 13 0 0,0
14.10.2017 08:00:00 15,3 12,9 15,1 13,3 12,7 12,9 15 8 27 14 ZW 1020,7 12 0 0,0

tt = temperatuur
td = dauwpunt
tt 5cm = temperatuur 5cm
tt -5cm = temperatuur -5cm
tt -20cm = temperatuur -20cm
tt -100cm = temperatuur -100cm
ff = windsnelheid
fx = windstoten
dd = windrichting
ppp = luchtdruk
vv = zicht
sd = Zonneschijnduur
rr = neerslag

Weerstations in de omgeving